Location: Bushey
(51.6333°N, 0.3667°W)
Time: 20:26:15
(UTC+00:00)

SJ 16-02 - Pass Details

Date: 03 March 2021
Orbit: 605 x 617 km, 75.0° (Epoch: 16 April)

Event Time Altitude Azimuth Distance (km) Brightness Sun altitude
Rises 21:11:19 0° 329° (NNW) 2,885 5.7 -31.4°
Reaches altitude 10° 21:13:44 10° 320° (NW) 1,977 4.8 -31.7°
Enters shadow 21:16:33 27° 285° (WNW) 1,175 3.2 -32.1°
